Location: Blackwall
(51.5097°N, 0.0016°W)
Time: 00:11:51
(UTC+00:00)

Cosmos 2360 Rocket - Pass Details

Date: 15 May 2026
Orbit: 831 x 845 km, 71.0° (Epoch: 9 June)

Event Time Altitude Azimuth Distance (km) Brightness Sun altitude
Rises 21:43:48 0° 327° (NNW) 3,417 7.4 -13.7°
Reaches altitude 10° 21:46:17 10° 324° (NW) 2,478 6.1 -13.9°
Maximum altitude 21:51:52 60° 247° (WSW) 963 2.5 -14.4°
Enters shadow 21:55:49 20° 172° (S) 1,877 3.5 -14.7°
